Regional Weather Roundup
Issued by NWS

Home | Current Version | Previous Version | Text Only | Print | Product List | Glossary Off
Versions: 1 2 3 4 5 6 7 8 9 10 11 12 13 14 15 16 17 18 19 20 21 22 23 24 25 26 27 28 29 30 31 32 33 34 35 36 37 38 39 40 41 42 43 44 45 46 47 48 49 50

000
ASUS43 KLMK 171110
RWRKY
KENTUCKY REGIONAL WEATHER ROUNDUP
NATIONAL WEATHER SERVICE LOUISVILLE KY
600 AM EST SAT FEB 17 2018

NOTE "FAIR" INDICATES FEW OR NO CLOUDS BELOW 12,000 FEET
WITH NO SIGNIFICANT WEATHER AND/OR OBSTRUCTIONS TO VISIBILITY.

KYZ001>023-026-027-061>063-070>075-171200-
WESTERN AND SOUTH CENTRAL KENTUCKY

CITY           SKY/WX    TMP DP  RH WIND       PRES   REMARKS
PADUCAH        CLOUDY    37  31  78 E5        30.13F WCI  33
HENDERSON      FAIR      36  33  89 E8        30.16F WCI  30
OWENSBORO      FAIR      37  30  75 E8        30.17F WCI  31
HOPKINSVILLE   CLOUDY    38  34  83 E6        30.13S WCI  34
BOWLING GREEN  FAIR      38  33  82 NE6       30.15F WCI  33
GLASGOW        FAIR      37  35  92 NE6       30.14F WCI  32
$$

KYZ024-025-028>034-038-045-046-053-171200-
NORTH CENTRAL KENTUCKY

CITY           SKY/WX    TMP DP  RH WIND       PRES   REMARKS
LOUISVILLE/SDF MOCLDY    36  29  75 NE6       30.18F WCI  31
LOUISVILLE/LOU FAIR      34  30  85 NE5       30.19F WCI  30
FORT KNOX      FAIR      34  29  83 NE5       30.17F WCI  30
$$

KYZ035>037-039>044-047>052-055>060-089>105-171200-
NORTHEAST KENTUCKY

CITY           SKY/WX    TMP DP  RH WIND       PRES   REMARKS
LEXINGTON      FAIR      34  28  79 E9        30.17F WCI  27
COVINGTON      CLOUDY    31  28  89 E6        30.20S WCI  25
FRANKFORT      FAIR      35  28  75 E6        30.17S WCI  30
$$

KYZ054-064>069-076>088-106>120-171200-
SOUTHEAST KENTUCKY

CITY           SKY/WX    TMP DP  RH WIND       PRES   REMARKS
JACKSON        FAIR      34  32  92 VRB3      30.16F
LONDON         FAIR      37  35  92 CALM      30.15F
SOMERSET       FAIR      34  34 100 E5        30.16F WCI  30
MIDDLESBORO    FAIR      40  40 100 CALM      30.17F FOG
MONTICELLO     NOT AVBL
$$





USA.gov is the U.S. government's official web portal to all federal, state and local government web resources and services.